FW6883 Weather Reports


Display with metric or nautical units.
time (UTC)temp
F
wind
direction
speed
MPH
gust
MPH
rain 1hr
in
rain 24hr
in
rain mn
in
humidity
%
barometer
mb
20210225023031 43 127 2.0 4.0 0.00 0.00 0.00 30 1006.3
20210225021519 43 127 1.0 4.0 0.00 0.00 0.00 30 1006.1
20210225020053 44 127 1.0 3.0 0.00 0.00 0.00 30 1005.9
20210225014525 45 127 1.0 4.0 0.00 0.00 0.00 30 1005.7
20210225013149 48 127 1.0 9.0 0.00 0.00 0.00 30 1005.8
20210225011744 49 127 3.0 8.0 0.00 0.00 0.00 30 1005.7
20210225010211 50 127 3.0 11.0 0.00 0.00 0.00 30 1005.8
20210225004656 50 127 3.0 10.0 0.00 0.00 0.00 30 1005.8
20210225003243 51 127 3.0 9.0 0.00 0.00 0.00 31 1005.7
20210225001659 51 127 5.0 10.0 0.00 0.00 0.00 31 1005.8
20210225000209 52 127 3.0 11.0 0.00 0.00 0.00 31 1005.8
20210224234624 52 127 4.0 12.0 0.00 0.00 0.00 31 1006.0
20210224233233 52 127 3.0 10.0 0.00 0.00 0.00 31 1005.9
20210224231714 52 127 4.0 12.0 0.00 0.00 0.00 31 1006.3
20210224230054 52 127 4.0 9.0 0.00 0.00 0.00 30 1006.3
20210224224610 52 127 4.0 14.0 0.00 0.00 0.00 30 1006.5
20210224223107 51 127 2.0 11.0 0.00 0.00 0.00 30 1006.7
20210224221637 51 127 4.0 10.0 0.00 0.00 0.00 30 1006.5
20210224220147 51 127 4.0 14.0 0.00 0.00 0.00 30 1006.6
20210224214641 51 127 5.0 10.0 0.00 0.00 0.00 30 1006.6
20210224213048 51 127 2.0 12.0 0.00 0.00 0.00 30 1006.5
20210224211540 51 127 4.0 10.0 0.00 0.00 0.00 30 1006.6
20210224210045 51 127 3.0 11.0 0.00 0.00 0.00 30 1006.6
20210224204530 51 127 3.0 11.0 0.00 0.00 0.00 30 1006.7
20210224203052 51 127 5.0 11.0 0.00 0.00 0.00 31 1006.7
20210224201541 52 127 4.0 10.0 0.00 0.00 0.00 31 1006.8
20210224200033 52 127 4.0 11.0 0.00 0.00 0.00 31 1007.1
20210224194528 52 127 3.0 10.0 0.00 0.00 0.00 31 1007.3
20210224193115 52 127 2.0 11.0 0.00 0.00 0.00 31 1007.5
20210224191546 52 127 4.0 11.0 0.00 0.00 0.00 32 1007.5
20210224190028 52 127 5.0 10.0 0.00 0.00 0.00 32 1007.5
20210224184543 52 127 3.0 10.0 0.00 0.00 0.00 32 1007.6
20210224183038 53 127 1.0 9.0 0.00 0.00 0.00 32 1007.6
20210224181528 52 127 3.0 9.0 0.00 0.00 0.00 32 1007.5
20210224180129 51 127 2.0 9.0 0.00 0.00 0.00 33 1007.5
20210224174651 51 127 3.0 9.0 0.00 0.00 0.00 33 1007.6
20210224173112 52 127 2.0 6.0 0.00 0.00 0.00 33 1007.6
20210224171754 51 127 2.0 6.0 0.00 0.00 0.00 33 1007.6
20210224170113 51 127 2.0 6.0 0.00 0.00 0.00 33 1007.7
20210224164724 50 127 2.0 5.0 0.00 0.00 0.00 33 1007.8
20210224163123 50 127 1.0 5.0 0.00 0.00 0.00 33 1007.8
20210224161706 49 127 2.0 7.0 0.00 0.00 0.00 33 1007.9
20210224160105 49 127 1.0 4.0 0.00 0.00 0.00 33 1008.0
20210224153053 47 127 1.0 7.0 0.00 0.00 0.00 33 1007.8
20210224151606 46 127 0.0 3.0 0.00 0.00 0.00 33 1007.7
20210224150049 44 127 0.0 2.0 0.00 0.00 0.00 33 1007.6
20210224144612 43 127 1.0 5.0 0.00 0.00 0.00 33 1007.6
20210224143027 43 127 1.0 6.0 0.00 0.00 0.00 33 1007.2
20210224141528 43 127 1.0 8.0 0.00 0.00 0.00 33 1006.9
20210224140044 43 127 1.0 3.0 0.00 0.00 0.00 33 1006.8
20210224134529 42 127 0.0 2.0 0.00 0.00 0.00 33 1006.9
20210224133040 42 127 1.0 5.0 0.00 0.00 0.00 33 1006.9
20210224131646 42 127 1.0 3.0 0.00 0.00 0.00 33 1006.8
20210224130150 42 127 0.0 4.0 0.00 0.00 0.00 32 1006.7
20210224124629 42 127 0.0 4.0 0.00 0.00 0.00 32 1006.6
20210224123138 42 127 1.0 3.0 0.00 0.00 0.00 32 1006.7
20210224121606 41 127 0.0 2.0 0.00 0.00 0.00 32 1006.5
20210224120051 41 127 0.0 2.0 0.00 0.00 0.00 32 1006.4
20210224114628 42 127 0.0 2.0 0.00 0.00 0.00 32 1006.5
20210224113152 42 127 0.0 2.0 0.00 0.00 0.00 32 1006.4
20210224111552 42 127 0.0 4.0 0.00 0.00 0.00 32 1006.4
20210224110114 42 127 1.0 4.0 0.00 0.00 0.00 31 1006.4
20210224104548 42 127 0.0 2.0 0.00 0.00 0.00 31 1006.5
20210224103130 42 127 0.0 2.0 0.00 0.00 0.00 31 1006.6
20210224101555 42 127 0.0 3.0 0.00 0.00 0.00 31 1006.8
20210224100122 43 127 1.0 4.0 0.00 0.00 0.00 31 1006.8
20210224094537 42 127 1.0 4.0 0.00 0.00 0.00 31 1006.9
20210224093040 43 127 2.0 4.0 0.00 0.00 0.00 31 1006.9
20210224091526 44 127 1.0 5.0 0.00 0.00 0.00 30 1007.0
20210224090036 43 127 0.0 2.0 0.00 0.00 0.00 30 1006.9
20210224084523 43 127 0.0 2.0 0.00 0.00 0.00 30 1006.8
20210224083020 43 127 1.0 3.0 0.00 0.00 0.00 30 1006.8
20210224081512 44 127 0.0 2.0 0.00 0.00 0.00 30 1006.8
20210224080159 44 127 0.0 1.0 0.00 0.00 0.00 30 1006.9
20210224074608 44 127 0.0 2.0 0.00 0.00 0.00 30 1006.8
20210224073223 45 127 0.0 3.0 0.00 0.00 0.00 29 1006.8
20210224071650 45 127 0.0 1.0 0.00 0.00 0.00 29 1006.9
20210224070225 46 127 0.0 4.0 0.00 0.00 0.00 29 1007.1
20210224064640 46 127 3.0 5.0 0.00 0.00 0.00 29 1007.3
20210224063113 46 127 0.0 2.0 0.00 0.00 0.00 29 1007.1
20210224061640 46 127 1.0 3.0 0.00 0.00 0.00 28 1007.3
20210224060134 45 127 1.0 3.0 0.00 0.00 0.00 28 1007.3
20210224054546 45 127 1.0 3.0 0.00 0.00 0.00 28 1007.4
20210224053041 45 127 1.0 2.0 0.00 0.00 0.00 27 1007.3
20210224051645 44 127 0.0 2.0 0.00 0.00 0.00 27 1007.3
20210224050157 45 127 0.0 3.0 0.00 0.00 0.00 27 1007.4
20210224044608 45 127 0.0 2.0 0.00 0.00 0.00 26 1007.3
20210224043211 46 127 0.0 2.0 0.00 0.00 0.00 26 1007.2
20210224041543 45 127 1.0 2.0 0.00 0.00 0.00 25 1006.9
20210224040110 44 127 1.0 2.0 0.00 0.00 0.00 25 1006.9
20210224034531 44 127 0.0 2.0 0.00 0.00 0.00 24 1006.9
20210224033112 44 127 0.0 1.0 0.00 0.00 0.00 24 1006.9
20210224031604 45 127 1.0 4.0 0.00 0.00 0.00 23 1006.9
20210224030039 44 127 0.0 2.0 0.00 0.00 0.00 23 1006.8
20210224024537 45 127 0.0 3.0 0.00 0.00 0.00 23 1006.6